Charleston, WV

3:12 PM EDT on July 25, 2017 (GMT -0400)
Yeager Airport

Weather History for KCRW - January, 2014

Change the Weather History Date:

Wednesday, January 8, 2014

  Actual Average Record
Temperature  
Mean Temperature 19 °F 34 °F  
Max Temperature 32 °F 42 °F 72 °F (1937)
Min Temperature 5 °F 26 °F -13 °F (1942)
Degree Days  
Heating Degree Days 46 31  
Month to date heating degree days 327 247  
Since 1 July heating degree days 2077 1987  
Cooling Degree Days 0 0  
Month to date cooling degree days 0 0  
Year to date cooling degree days 0 0  
Moisture  
Dew Point 11 °F    
Average Humidity 71    
Maximum Humidity 96    
Minimum Humidity 45    
Precipitation  
Precipitation 0.00 in 0.09 in 1.34 in (1913)
Month to date precipitation 0.57 0.77  
Year to date precipitation 0.57 0.77  
Snow  
Snow 0.00 in - - ()
Month to date snowfall 4.7  
Since 1 September snowfall 11.4  
Snow Depth 1.00 in    
Sea Level Pressure  
Sea Level Pressure 30.49 in    
Wind  
Wind Speed 2 mph (SSW)    
Max Wind Speed 14 mph    
Max Gust Speed 18 mph    
Visibility 10 miles    
Events      
T = Trace of Precipitation, MM = Missing Value Source: NWS Daily Summary

Daily Weather History Graph

Daily Weather History Graph

Search for Another Location

Airport or City:

Trip Planner

Search our weather history database for the weather conditions in past years. The results will help you decide how hot, cold, wet, or windy it might be!

Date:

Astronomy

Jan. 08, 2014 Rise Set
Actual Time 7:43 AM EST 5:22 PM EST
Civil Twilight 7:14 AM EST 5:52 PM EST
Nautical Twilight 6:41 AM EST 6:25 PM EST
Astronomical Twilight 6:09 AM EST 6:56 PM EST
Moon 12:12 PM EST (1/8) 12:50 AM EST (1/8)
Length of Visible Light 10h 37m
Length of Day
9h 39m
First Quarter, 56% of the Moon is Illuminated
Jan 8
First Quarter
Jan 15
Full
Jan 24
Last Quarter
Jan 30
New
Feb 6
First Quarter

Hourly Weather History & Observations

Time (EST) Temp. Windchill Dew Point Humidity Pressure Visibility Wind Dir Wind Speed Gust Speed Precip Events Conditions
12:54 AM 9.0 °F - 3.9 °F 80% 30.49 in 10.0 mi Calm Calm - N/A   Mostly Cloudy
1:54 AM 8.1 °F - 3.9 °F 83% 30.49 in 10.0 mi Calm Calm - N/A   Clear
2:54 AM 7.0 °F - 3.9 °F 87% 30.51 in 10.0 mi Calm Calm - N/A   Clear
3:54 AM 6.1 °F - 3.9 °F 91% 30.51 in 10.0 mi Calm Calm - N/A   Clear
4:54 AM 6.1 °F - 3.9 °F 91% 30.50 in 10.0 mi Calm Calm - N/A   Partly Cloudy
5:54 AM 5.0 °F - 3.0 °F 92% 30.51 in 10.0 mi Calm Calm - N/A   Clear
6:54 AM 6.1 °F - 1.9 °F 83% 30.52 in 10.0 mi Calm Calm - N/A   Partly Cloudy
7:54 AM 5.0 °F - 3.0 °F 92% 30.53 in 10.0 mi Calm Calm - N/A   Partly Cloudy
8:54 AM 7.0 °F - 5.0 °F 92% 30.55 in 10.0 mi Calm Calm - N/A   Partly Cloudy
9:54 AM 12.0 °F - 8.1 °F 84% 30.56 in 10.0 mi Calm Calm - N/A   Partly Cloudy
10:54 AM 21.0 °F - 10.9 °F 65% 30.54 in 10.0 mi Calm Calm - N/A   Scattered Clouds
11:54 AM 27.0 °F 19.5 °F 10.0 °F 49% 30.51 in 10.0 mi SW 6.9 mph - N/A   Scattered Clouds
12:54 PM 28.0 °F 18.1 °F 10.9 °F 49% 30.46 in 10.0 mi SSW 11.5 mph - N/A   Mostly Cloudy
1:54 PM 30.0 °F 22.4 °F 12.0 °F 47% 30.44 in 10.0 mi South 8.1 mph - N/A   Mostly Cloudy
2:54 PM 30.9 °F 25.2 °F 12.9 °F 47% 30.44 in 10.0 mi SSW 5.8 mph - N/A   Mostly Cloudy
3:54 PM 32.0 °F 25.6 °F 14.0 °F 48% 30.45 in 10.0 mi SSW 6.9 mph - N/A   Mostly Cloudy
4:54 PM 32.0 °F 27.5 °F 17.1 °F 54% 30.46 in 10.0 mi SSW 4.6 mph - N/A   Overcast
5:54 PM 32.0 °F - 15.1 °F 50% 30.45 in 10.0 mi Calm Calm - N/A   Overcast
6:54 PM 32.0 °F - 16.0 °F 52% 30.46 in 10.0 mi Calm Calm - N/A   Mostly Cloudy
7:54 PM 30.9 °F - 19.0 °F 61% 30.46 in 10.0 mi Calm Calm - N/A   Mostly Cloudy
8:54 PM 30.0 °F - 21.0 °F 69% 30.48 in 10.0 mi Calm Calm - N/A   Scattered Clouds
9:54 PM 28.0 °F - 21.0 °F 75% 30.48 in 10.0 mi Calm Calm - N/A   Partly Cloudy
10:54 PM 28.0 °F - 21.0 °F 75% 30.48 in 10.0 mi Calm Calm - N/A   Partly Cloudy
11:54 PM 27.0 °F - 21.9 °F 81% 30.48 in 10.0 mi Calm Calm - N/A   Clear